Location: Saddleback Butte
(34.6776°N, 117.8050°W)
Time: 00:41:14
(UTC-07:00)

Iridium 35 - Visible Passes

Search period start: 23 April 2014 00:00
Search period end: 03 May 2014 00:00
Orbit: 776 x 779 km, 86.4° (Epoch: 22 April)

Date Brightness Start Highest point End Pass type
(mag) Time Alt. Az. Time Alt. Az. Time Alt. Az.
23 Apr 7.5 02:34:31 10° NE 02:37:26 15° ENE 02:38:37 14° E visible
23 Apr 5.2 04:13:23 10° NNW 04:18:25 51° W 04:19:04 48° WSW visible
24 Apr 4.9 03:39:44 10° N 03:44:58 83° E 03:45:17 77° SE visible
25 Apr 6.0 03:06:28 10° NNE 03:11:24 42° E 03:11:32 42° E visible
25 Apr 6.5 04:48:18 10° NW 04:51:42 18° W 04:51:59 18° W visible
26 Apr 7.0 02:33:41 10° NNE 02:37:42 22° E 02:37:49 22° E visible
26 Apr 5.7 04:13:47 10° NNW 04:18:16 34° W 04:18:16 34° W visible
27 Apr 7.7 02:02:21 10° ENE 02:03:52 11° ENE 02:04:07 11° ENE visible
27 Apr 5.1 03:39:53 10° N 03:44:34 63° WNW 03:44:34 63° WNW visible
28 Apr 5.5 03:06:22 10° N 03:10:53 58° NE 03:10:53 58° NE visible
28 Apr 7.0 04:49:50 10° WNW 04:51:21 12° WNW 04:51:21 12° WNW visible
29 Apr 6.5 02:33:16 10° NNE 02:37:14 31° ENE 02:37:14 31° ENE visible
29 Apr 6.4 04:14:23 10° NNW 04:17:41 22° WNW 04:17:41 22° WNW visible
30 Apr 7.4 02:00:49 10° NE 02:03:36 17° ENE 02:03:36 17° ENE visible
30 Apr 5.7 03:40:10 10° NNW 03:44:03 39° NW 03:44:03 39° NW visible
01 May 5.5 03:06:25 10° N 03:10:26 54° N 03:10:26 54° N visible
02 May 6.2 02:33:04 10° N 02:36:49 40° NE 02:36:49 40° NE visible
02 May 6.9 04:15:21 10° NW 04:17:17 15° WNW 04:17:17 15° WNW visible
